Location: Izdebno
(52.6670°N, 16.2170°E)
Time: 04:23:36
(UTC+02:00)

Transit 2A - Pass Details

Date: 27 February 2024
Orbit: 596 x 956 km, 66.7° (Epoch: 21 April)

Event Time Altitude Azimuth Distance (km) Brightness Sun altitude
Rises 19:37:50 0° 216° (SW) 2,845 9.3 -20.2°
Reaches altitude 10° 19:40:04 10° 216° (SW) 1,934 8.4 -20.5°
Maximum altitude 19:44:22 86° 129° (SE) 607 5.4 -21.1°
Enters shadow 19:45:54 40° 42° (NE) 895 6.1 -21.3°
Drops below altitude 10° 19:48:47 10° 40° (NE) 1,982 - -21.8°
Sets 19:51:06 0° 40° (NE) 2,922 - -22.1°
